owner,sensor,date,latitude,longitude,vertical_datum,direction_of_sea_water_velocity,sea_water_speed,upward_sea_water_velocity,qcFlag 
TABS,ioos:station:wmo:42044:1,1999-07-01T00:00:00Z,26.1914,-97.0507,2.0,343.9469864,12.40368091,-99999.0,'11111222,11111222,99999999' 
TABS,ioos:station:wmo:42044:1,1999-07-01T00:30:00Z,26.1914,-97.0507,2.0,345.5794711,15.53960746,-99999.0,'11111222,11111222,99999999' 
TABS,ioos:station:wmo:42044:1,1999-07-01T01:00:00Z,26.1914,-97.0507,2.0,346.4762292,16.54886703,-99999.0,'11111222,11111222,99999999' 
TABS,ioos:station:wmo:42044:1,1999-07-01T01:30:00Z,26.1914,-97.0507,2.0,346.5740173,17.31317417,-99999.0,'11111222,11111222,99999999' 
TABS,ioos:station:wmo:42044:1,1999-07-01T02:00:00Z,26.1914,-97.0507,2.0,348.1558981,15.9802378,-99999.0,'11111222,11111222,99999999' 
TABS,ioos:station:wmo:42044:1,1999-07-01T02:30:00Z,26.1914,-97.0507,2.0,342.767135,18.09220827,-99999.0,'11111222,11111222,99999999' 
TABS,ioos:station:wmo:42044:1,1999-07-01T03:00:00Z,26.1914,-97.0507,2.0,343.2448362,17.58665687,-99999.0,'11111222,11111222,99999999' 
TABS,ioos:station:wmo:42044:1,1999-07-01T03:30:00Z,26.1914,-97.0507,2.0,342.9583966,17.29960982,-99999.0,'11111222,11111222,99999999' 
TABS,ioos:station:wmo:42044:1,1999-07-01T04:00:00Z,26.1914,-97.0507,2.0,338.2751522,18.12759499,-99999.0,'11111222,11111222,99999999' 
TABS,ioos:station:wmo:42044:1,1999-07-01T04:30:00Z,26.1914,-97.0507,2.0,342.1391985,18.94299343,-99999.0,'11111222,11111222,99999999' 
TABS,ioos:station:wmo:42044:1,1999-07-01T05:00:00Z,26.1914,-97.0507,2.0,344.6150581,18.54456255,-99999.0,'11111222,11111222,99999999' 
TABS,ioos:station:wmo:42044:1,1999-07-01T05:30:00Z,26.1914,-97.0507,2.0,344.0090753,18.91180848,-99999.0,'11111222,11111222,99999999' 
TABS,ioos:station:wmo:42044:1,1999-07-01T06:00:00Z,26.1914,-97.0507,2.0,345.2251461,22.19385501,-99999.0,'11111222,11111222,99999999' 
TABS,ioos:station:wmo:42044:1,1999-07-01T06:30:00Z,26.1914,-97.0507,2.0,347.6305164,22.26691267,-99999.0,'11111222,11111222,99999999' 
TABS,ioos:station:wmo:42044:1,1999-07-01T07:00:00Z,26.1914,-97.0507,2.0,346.426444,22.83789833,-99999.0,'11111222,11111222,99999999' 
TABS,ioos:station:wmo:42044:1,1999-07-01T07:30:00Z,26.1914,-97.0507,2.0,348.4640791,22.35153015,-99999.0,'11111222,11111222,99999999' 
TABS,ioos:station:wmo:42044:1,1999-07-01T08:00:00Z,26.1914,-97.0507,2.0,346.8787108,22.33310099,-99999.0,'11111222,11111222,99999999' 
TABS,ioos:station:wmo:42044:1,1999-07-01T08:30:00Z,26.1914,-97.0507,2.0,351.8129358,24.08548318,-99999.0,'11111222,11111222,99999999' 
TABS,ioos:station:wmo:42044:1,1999-07-01T09:00:00Z,26.1914,-97.0507,2.0,351.8634399,24.23396377,-99999.0,'11111222,11111222,99999999' 
TABS,ioos:station:wmo:42044:1,1999-07-01T09:30:00Z,26.1914,-97.0507,2.0,354.7223441,24.24278243,-99999.0,'11111222,11111222,99999999' 
TABS,ioos:station:wmo:42044:1,1999-07-01T10:00:00Z,26.1914,-97.0507,2.0,354.7285581,27.53647218,-99999.0,'11111222,11111222,99999999' 
TABS,ioos:station:wmo:42044:1,1999-07-01T10:30:00Z,26.1914,-97.0507,2.0,352.8312546,27.48486493,-99999.0,'11111222,11111222,99999999' 
TABS,ioos:station:wmo:42044:1,1999-07-01T11:00:00Z,26.1914,-97.0507,2.0,352.6575783,24.49083502,-99999.0,'11111222,11111222,99999999' 
TABS,ioos:station:wmo:42044:1,1999-07-01T11:30:00Z,26.1914,-97.0507,2.0,357.074603,26.25421871,-99999.0,'11111222,11111222,99999999' 
TABS,ioos:station:wmo:42044:1,1999-07-01T12:00:00Z,26.1914,-97.0507,2.0,354.6324862,25.44156638,-99999.0,'11111222,11111222,99999999' 
TABS,ioos:station:wmo:42044:1,1999-07-01T12:30:00Z,26.1914,-97.0507,2.0,359.7146863,30.10037375,-99999.0,'11111222,11144222,99999999' 
TABS,ioos:station:wmo:42044:1,1999-07-01T13:00:00Z,26.1914,-97.0507,2.0,340.9245394,16.40059755,-99999.0,'11111222,11111222,99999999' 
TABS,ioos:station:wmo:42044:1,1999-07-01T13:30:00Z,26.1914,-97.0507,2.0,357.5428901,34.75195678,-99999.0,'11111222,11111222,99999999' 
TABS,ioos:station:wmo:42044:1,1999-07-01T14:00:00Z,26.1914,-97.0507,2.0,356.3175016,25.5327241,-99999.0,'11111222,11111222,99999999' 
TABS,ioos:station:wmo:42044:1,1999-07-01T14:30:00Z,26.1914,-97.0507,2.0,356.6367039,22.83934325,-99999.0,'11111222,11111222,99999999' 
TABS,ioos:station:wmo:42044:1,1999-07-01T15:00:00Z,26.1914,-97.0507,2.0,355.8350973,24.64509079,-99999.0,'11111222,11111222,99999999' 
TABS,ioos:station:wmo:42044:1,1999-07-01T15:30:00Z,26.1914,-97.0507,2.0,359.3373517,25.93173538,-99999.0,'11111222,11144222,99999999' 
TABS,ioos:station:wmo:42044:1,1999-07-01T16:00:00Z,26.1914,-97.0507,2.0,5.066666816,40.53838675,-99999.0,'11111222,11111222,99999999' 
TABS,ioos:station:wmo:42044:1,1999-07-01T16:30:00Z,26.1914,-97.0507,2.0,2.954708166,49.08524524,-99999.0,'11111222,11111222,99999999' 
TABS,ioos:station:wmo:42044:1,1999-07-01T17:00:00Z,26.1914,-97.0507,2.0,0.818274505,21.01214173,-99999.0,'11111222,11111222,99999999' 
TABS,ioos:station:wmo:42044:1,1999-07-01T17:30:00Z,26.1914,-97.0507,2.0,4.267242078,20.02550873,-99999.0,'11111222,11111222,99999999' 
TABS,ioos:station:wmo:42044:1,1999-07-01T18:00:00Z,26.1914,-97.0507,2.0,5.015519367,27.22423185,-99999.0,'11111222,11111222,99999999' 
TABS,ioos:station:wmo:42044:1,1999-07-01T18:30:00Z,26.1914,-97.0507,2.0,11.10951683,16.24439903,-99999.0,'11111222,11111222,99999999' 
TABS,ioos:station:wmo:42044:1,1999-07-01T19:00:00Z,26.1914,-97.0507,2.0,10.40454753,20.59868928,-99999.0,'11111222,11111222,99999999' 
TABS,ioos:station:wmo:42044:1,1999-07-01T19:30:00Z,26.1914,-97.0507,2.0,3.63509232,14.03824063,-99999.0,'11111222,11111222,99999999' 
TABS,ioos:station:wmo:42044:1,1999-07-01T20:00:00Z,26.1914,-97.0507,2.0,2.283213228,15.06195538,-99999.0,'11111222,11111222,99999999' 
TABS,ioos:station:wmo:42044:1,1999-07-01T20:30:00Z,26.1914,-97.0507,2.0,5.201899779,21.39812375,-99999.0,'11111222,11111222,99999999' 
TABS,ioos:station:wmo:42044:1,1999-07-01T21:00:00Z,26.1914,-97.0507,2.0,4.45607864,26.90131038,-99999.0,'11111222,11111222,99999999' 
TABS,ioos:station:wmo:42044:1,1999-07-01T21:30:00Z,26.1914,-97.0507,2.0,10.1805968,17.70880572,-99999.0,'11111222,11111222,99999999' 
TABS,ioos:station:wmo:42044:1,1999-07-01T22:00:00Z,26.1914,-97.0507,2.0,8.901598013,22.16697769,-99999.0,'11111222,11111222,99999999' 
TABS,ioos:station:wmo:42044:1,1999-07-01T22:30:00Z,26.1914,-97.0507,2.0,6.407445935,16.04019015,-99999.0,'11111222,11111222,99999999' 
TABS,ioos:station:wmo:42044:1,1999-07-01T23:00:00Z,26.1914,-97.0507,2.0,0.601191692,14.30078669,-99999.0,'11111222,11111222,99999999' 
TABS,ioos:station:wmo:42044:1,1999-07-01T23:30:00Z,26.1914,-97.0507,2.0,357.0443685,11.63548022,-99999.0,'11111222,11111222,99999999' 
TABS,ioos:station:wmo:42044:1,1999-07-02T00:00:00Z,26.1914,-97.0507,2.0,349.1980689,13.49920368,-99999.0,'11111222,11111222,99999999' 
TABS,ioos:station:wmo:42044:1,1999-07-02T00:30:00Z,26.1914,-97.0507,2.0,351.9353965,14.89733533,-99999.0,'11111222,11111222,99999999' 
TABS,ioos:station:wmo:42044:1,1999-07-02T01:00:00Z,26.1914,-97.0507,2.0,352.2666304,18.80100529,-99999.0,'11111222,11111222,99999999' 
TABS,ioos:station:wmo:42044:1,1999-07-02T01:30:00Z,26.1914,-97.0507,2.0,348.1558981,15.9802378,-99999.0,'11111222,11111222,99999999' 
TABS,ioos:station:wmo:42044:1,1999-07-02T02:00:00Z,26.1914,-97.0507,2.0,339.0757576,14.19621428,-99999.0,'11111222,11111222,99999999' 
TABS,ioos:station:wmo:42044:1,1999-07-02T02:30:00Z,26.1914,-97.0507,2.0,336.2968175,15.94515914,-99999.0,'11111222,11111222,99999999' 
TABS,ioos:station:wmo:42044:1,1999-07-02T03:00:00Z,26.1914,-97.0507,2.0,331.1747248,17.00735135,-99999.0,'11111222,11111222,99999999' 
TABS,ioos:station:wmo:42044:1,1999-07-02T03:30:00Z,26.1914,-97.0507,2.0,335.9512544,16.80907493,-99999.0,'11111222,11111222,99999999' 
TABS,ioos:station:wmo:42044:1,1999-07-02T04:00:00Z,26.1914,-97.0507,2.0,321.8465396,18.56666098,-99999.0,'11111222,11111222,99999999' 
TABS,ioos:station:wmo:42044:1,1999-07-02T04:30:00Z,26.1914,-97.0507,2.0,330.366215,19.88032444,-99999.0,'11111222,11111222,99999999' 
TABS,ioos:station:wmo:42044:1,1999-07-02T05:00:00Z,26.1914,-97.0507,2.0,329.5333245,20.57031356,-99999.0,'11111222,11111222,99999999' 
TABS,ioos:station:wmo:42044:1,1999-07-02T05:30:00Z,26.1914,-97.0507,2.0,328.0064252,21.08229826,-99999.0,'11111222,11111222,99999999' 
TABS,ioos:station:wmo:42044:1,1999-07-02T06:00:00Z,26.1914,-97.0507,2.0,332.3588624,21.18824674,-99999.0,'11111222,11111222,99999999' 
TABS,ioos:station:wmo:42044:1,1999-07-02T06:30:00Z,26.1914,-97.0507,2.0,326.9643361,21.86493311,-99999.0,'11111222,11111222,99999999' 
TABS,ioos:station:wmo:42044:1,1999-07-02T07:00:00Z,26.1914,-97.0507,2.0,333.7755876,22.58468508,-99999.0,'11111222,11111222,99999999' 
TABS,ioos:station:wmo:42044:1,1999-07-02T07:30:00Z,26.1914,-97.0507,2.0,333.2645298,22.51730446,-99999.0,'11111222,11111222,99999999' 
TABS,ioos:station:wmo:42044:1,1999-07-02T08:00:00Z,26.1914,-97.0507,2.0,332.182193,21.06432529,-99999.0,'11111222,11111222,99999999' 
TABS,ioos:station:wmo:42044:1,1999-07-02T08:30:00Z,26.1914,-97.0507,2.0,332.5596436,21.656611,-99999.0,'11111222,11111222,99999999' 
TABS,ioos:station:wmo:42044:1,1999-07-02T09:00:00Z,26.1914,-97.0507,2.0,331.6293102,21.00263793,-99999.0,'11111222,11111222,99999999' 
TABS,ioos:station:wmo:42044:1,1999-07-02T09:30:00Z,26.1914,-97.0507,2.0,335.3254807,20.33692455,-99999.0,'11111222,11111222,99999999' 
TABS,ioos:station:wmo:42044:1,1999-07-02T10:00:00Z,26.1914,-97.0507,2.0,331.7696826,20.46419556,-99999.0,'11111222,11111222,99999999' 
TABS,ioos:station:wmo:42044:1,1999-07-02T10:30:00Z,26.1914,-97.0507,2.0,338.0374562,19.11741091,-99999.0,'11111222,11111222,99999999' 
TABS,ioos:station:wmo:42044:1,1999-07-02T11:00:00Z,26.1914,-97.0507,2.0,335.9838297,19.41038124,-99999.0,'11111222,11111222,99999999' 
TABS,ioos:station:wmo:42044:1,1999-07-02T11:30:00Z,26.1914,-97.0507,2.0,344.4911372,18.39998098,-99999.0,'11111222,11111222,99999999' 
TABS,ioos:station:wmo:42044:1,1999-07-02T12:00:00Z,26.1914,-97.0507,2.0,340.9054556,15.92628645,-99999.0,'11111222,11111222,99999999' 
TABS,ioos:station:wmo:42044:1,1999-07-02T12:30:00Z,26.1914,-97.0507,2.0,336.3895384,19.34981654,-99999.0,'11111222,11111222,99999999' 
TABS,ioos:station:wmo:42044:1,1999-07-02T13:00:00Z,26.1914,-97.0507,2.0,345.1039681,16.80476123,-99999.0,'11111222,11111222,99999999' 
TABS,ioos:station:wmo:42044:1,1999-07-02T13:30:00Z,26.1914,-97.0507,2.0,337.0130443,10.67791178,-99999.0,'11111222,11111222,99999999' 
TABS,ioos:station:wmo:42044:1,1999-07-02T14:00:00Z,26.1914,-97.0507,2.0,340.8909088,11.82141278,-99999.0,'11111222,11111222,99999999' 
TABS,ioos:station:wmo:42044:1,1999-07-02T14:30:00Z,26.1914,-97.0507,2.0,314.3526909,9.383906436,-99999.0,'11133222,11111222,99999999' 
TABS,ioos:station:wmo:42044:1,1999-07-02T15:00:00Z,26.1914,-97.0507,2.0,323.130399,14.15,-99999.0,'11111222,11111222,99999999' 
TABS,ioos:station:wmo:42044:1,1999-07-02T15:30:00Z,26.1914,-97.0507,2.0,305.0009609,10.91380777,-99999.0,'11111222,11111222,99999999' 
TABS,ioos:station:wmo:42044:1,1999-07-02T16:00:00Z,26.1914,-97.0507,2.0,318.6310473,23.22557642,-99999.0,'11111222,11111222,99999999' 
TABS,ioos:station:wmo:42044:1,1999-07-02T16:30:00Z,26.1914,-97.0507,2.0,329.4956287,12.62784621,-99999.0,'11111222,11111222,99999999' 
TABS,ioos:station:wmo:42044:1,1999-07-02T17:00:00Z,26.1914,-97.0507,2.0,315.0003157,8.428712832,-99999.0,'11133222,11111222,99999999' 
TABS,ioos:station:wmo:42044:1,1999-07-02T17:30:00Z,26.1914,-97.0507,2.0,328.0588798,25.63076472,-99999.0,'11111222,11111222,99999999' 
TABS,ioos:station:wmo:42044:1,1999-07-02T18:00:00Z,26.1914,-97.0507,2.0,276.7495799,5.105379516,-99999.0,'11133222,11111222,99999999' 
TABS,ioos:station:wmo:42044:1,1999-07-02T18:30:00Z,26.1914,-97.0507,2.0,288.7577264,7.867871377,-99999.0,'11133222,11111222,99999999' 
TABS,ioos:station:wmo:42044:1,1999-07-02T19:00:00Z,26.1914,-97.0507,2.0,300.1040733,11.88276062,-99999.0,'11111222,11111222,99999999' 
TABS,ioos:station:wmo:42044:1,1999-07-02T19:30:00Z,26.1914,-97.0507,2.0,304.3508067,10.82846711,-99999.0,'11111222,11111222,99999999' 
TABS,ioos:station:wmo:42044:1,1999-07-02T20:00:00Z,26.1914,-97.0507,2.0,305.8892862,24.64961257,-99999.0,'11111222,11111222,99999999' 
TABS,ioos:station:wmo:42044:1,1999-07-02T20:30:00Z,26.1914,-97.0507,2.0,294.4133939,12.26677627,-99999.0,'11111222,11111222,99999999' 
TABS,ioos:station:wmo:42044:1,1999-07-02T21:00:00Z,26.1914,-97.0507,2.0,298.0342073,10.46823767,-99999.0,'11111222,11111222,99999999' 
TABS,ioos:station:wmo:42044:1,1999-07-02T21:30:00Z,26.1914,-97.0507,2.0,283.035706,10.55190978,-99999.0,'11111222,11111222,99999999' 
TABS,ioos:station:wmo:42044:1,1999-07-02T22:00:00Z,26.1914,-97.0507,2.0,295.6346962,12.38945116,-99999.0,'11111222,11111222,99999999' 
TABS,ioos:station:wmo:42044:1,1999-07-02T22:30:00Z,26.1914,-97.0507,2.0,288.2042971,10.97951729,-99999.0,'11111222,11111222,99999999' 
TABS,ioos:station:wmo:42044:1,1999-07-02T23:00:00Z,26.1914,-97.0507,2.0,300.2252513,15.69342537,-99999.0,'11111222,11111222,99999999' 
TABS,ioos:station:wmo:42044:1,1999-07-02T23:30:00Z,26.1914,-97.0507,2.0,279.4775625,12.69324624,-99999.0,'11111222,11111222,99999999' 
TABS,ioos:station:wmo:42044:1,1999-07-03T00:00:00Z,26.1914,-97.0507,2.0,296.3283025,15.12936549,-99999.0,'11111222,11111222,99999999' 
TABS,ioos:station:wmo:42044:1,1999-07-03T00:30:00Z,26.1914,-97.0507,2.0,296.5490491,15.66142075,-99999.0,'11111222,11111222,99999999' 
TABS,ioos:station:wmo:42044:1,1999-07-03T01:00:00Z,26.1914,-97.0507,2.0,289.3309699,18.00504651,-99999.0,'11111222,11111222,99999999' 
TABS,ioos:station:wmo:42044:1,1999-07-03T01:30:00Z,26.1914,-97.0507,2.0,294.9108377,16.2629948,-99999.0,'11111222,11111222,99999999' 
TABS,ioos:station:wmo:42044:1,1999-07-03T02:00:00Z,26.1914,-97.0507,2.0,292.2065935,15.76964172,-99999.0,'11111222,11111222,99999999' 
TABS,ioos:station:wmo:42044:1,1999-07-03T02:30:00Z,26.1914,-97.0507,2.0,296.300231,15.46033958,-99999.0,'11111222,11111222,99999999' 
TABS,ioos:station:wmo:42044:1,1999-07-03T03:00:00Z,26.1914,-97.0507,2.0,292.3842953,16.43860091,-99999.0,'11111222,11111222,99999999' 
TABS,ioos:station:wmo:42044:1,1999-07-03T03:30:00Z,26.1914,-97.0507,2.0,291.8144107,16.84628149,-99999.0,'11111222,11111222,99999999' 
TABS,ioos:station:wmo:42044:1,1999-07-03T04:00:00Z,26.1914,-97.0507,2.0,290.788618,18.48328975,-99999.0,'11111222,11111222,99999999' 
TABS,ioos:station:wmo:42044:1,1999-07-03T04:30:00Z,26.1914,-97.0507,2.0,290.3921834,17.9658899,-99999.0,'11111222,11111222,99999999' 
TABS,ioos:station:wmo:42044:1,1999-07-03T05:00:00Z,26.1914,-97.0507,2.0,286.2270225,17.07000293,-99999.0,'11111222,11111222,99999999' 
TABS,ioos:station:wmo:42044:1,1999-07-03T05:30:00Z,26.1914,-97.0507,2.0,286.9936265,18.85314297,-99999.0,'11111222,11111222,99999999' 
TABS,ioos:station:wmo:42044:1,1999-07-03T06:00:00Z,26.1914,-97.0507,2.0,291.5144096,16.6607953,-99999.0,'11111222,11111222,99999999' 
TABS,ioos:station:wmo:42044:1,1999-07-03T06:30:00Z,26.1914,-97.0507,2.0,289.5190001,17.38931281,-99999.0,'11111222,11111222,99999999' 
TABS,ioos:station:wmo:42044:1,1999-07-03T07:00:00Z,26.1914,-97.0507,2.0,284.2588789,18.75784636,-99999.0,'11111222,11111222,99999999' 
TABS,ioos:station:wmo:42044:1,1999-07-03T07:30:00Z,26.1914,-97.0507,2.0,294.6065981,17.53207347,-99999.0,'11111222,11111222,99999999' 
TABS,ioos:station:wmo:42044:1,1999-07-03T08:00:00Z,26.1914,-97.0507,2.0,288.3110027,20.4030635,-99999.0,'11111222,11111222,99999999' 
TABS,ioos:station:wmo:42044:1,1999-07-03T08:30:00Z,26.1914,-97.0507,2.0,301.7727093,19.8083442,-99999.0,'11111222,11111222,99999999' 
TABS,ioos:station:wmo:42044:1,1999-07-03T09:00:00Z,26.1914,-97.0507,2.0,297.1718363,18.59171052,-99999.0,'11111222,11111222,99999999' 
TABS,ioos:station:wmo:42044:1,1999-07-03T09:30:00Z,26.1914,-97.0507,2.0,299.1691025,20.47668919,-99999.0,'11111222,11111222,99999999' 
TABS,ioos:station:wmo:42044:1,1999-07-03T10:00:00Z,26.1914,-97.0507,2.0,306.5758667,23.7463134,-99999.0,'11111222,11111222,99999999' 
TABS,ioos:station:wmo:42044:1,1999-07-03T10:30:00Z,26.1914,-97.0507,2.0,304.4728848,21.32466412,-99999.0,'11111222,11111222,99999999' 
TABS,ioos:station:wmo:42044:1,1999-07-03T11:00:00Z,26.1914,-97.0507,2.0,307.4280305,21.57102223,-99999.0,'11111222,11111222,99999999' 
TABS,ioos:station:wmo:42044:1,1999-07-03T11:30:00Z,26.1914,-97.0507,2.0,307.5820769,21.24964,-99999.0,'11111222,11111222,99999999' 
TABS,ioos:station:wmo:42044:1,1999-07-03T12:00:00Z,26.1914,-97.0507,2.0,306.6210485,20.23419136,-99999.0,'11111222,11111222,99999999' 
TABS,ioos:station:wmo:42044:1,1999-07-03T12:30:00Z,26.1914,-97.0507,2.0,308.989216,20.12175937,-99999.0,'11111222,11111222,99999999' 
TABS,ioos:station:wmo:42044:1,1999-07-03T13:00:00Z,26.1914,-97.0507,2.0,317.7539784,19.72276857,-99999.0,'11111222,11111222,99999999' 
TABS,ioos:station:wmo:42044:1,1999-07-03T13:30:00Z,26.1914,-97.0507,2.0,313.7329197,19.18142852,-99999.0,'11111222,11111222,99999999' 
TABS,ioos:station:wmo:42044:1,1999-07-03T14:00:00Z,26.1914,-97.0507,2.0,313.7936241,19.81045431,-99999.0,'11111222,11111222,99999999' 
TABS,ioos:station:wmo:42044:1,1999-07-03T14:30:00Z,26.1914,-97.0507,2.0,309.4801929,17.56822416,-99999.0,'11111222,11111222,99999999' 
TABS,ioos:station:wmo:42044:1,1999-07-03T15:00:00Z,26.1914,-97.0507,2.0,301.6627182,15.0501196,-99999.0,'11111222,11111222,99999999' 
TABS,ioos:station:wmo:42044:1,1999-07-03T15:30:00Z,26.1914,-97.0507,2.0,319.4679309,40.57687149,-99999.0,'11111222,11111222,99999999' 
TABS,ioos:station:wmo:42044:1,1999-07-03T16:00:00Z,26.1914,-97.0507,2.0,308.0639018,13.05683346,-99999.0,'11111222,11111222,99999999' 
TABS,ioos:station:wmo:42044:1,1999-07-03T16:30:00Z,26.1914,-97.0507,2.0,312.246653,19.72276857,-99999.0,'11111222,11111222,99999999' 
TABS,ioos:station:wmo:42044:1,1999-07-03T17:00:00Z,26.1914,-97.0507,2.0,318.840119,25.13041981,-99999.0,'11111222,11111222,99999999' 
TABS,ioos:station:wmo:42044:1,1999-07-03T17:30:00Z,26.1914,-97.0507,2.0,347.5628789,37.37716549,-99999.0,'11111222,11111222,99999999' 
TABS,ioos:station:wmo:42044:1,1999-07-03T18:00:00Z,26.1914,-97.0507,2.0,340.4486729,24.50281821,-99999.0,'11111222,11111222,99999999' 
TABS,ioos:station:wmo:42044:1,1999-07-03T18:30:00Z,26.1914,-97.0507,2.0,321.812465,11.56505945,-99999.0,'11111222,11111222,99999999' 
TABS,ioos:station:wmo:42044:1,1999-07-03T19:00:00Z,26.1914,-97.0507,2.0,328.6428424,21.46526962,-99999.0,'11111222,11111222,99999999' 
TABS,ioos:station:wmo:42044:1,1999-07-03T19:30:00Z,26.1914,-97.0507,2.0,323.109896,11.17800072,-99999.0,'11111222,11111222,99999999' 
TABS,ioos:station:wmo:42044:1,1999-07-03T20:00:00Z,26.1914,-97.0507,2.0,318.8401917,18.79466414,-99999.0,'11111222,11111222,99999999' 
TABS,ioos:station:wmo:42044:1,1999-07-03T20:30:00Z,26.1914,-97.0507,2.0,330.0242844,10.14736419,-99999.0,'11111222,11111222,99999999' 
TABS,ioos:station:wmo:42044:1,1999-07-03T21:00:00Z,26.1914,-97.0507,2.0,306.4371202,24.0766879,-99999.0,'11111222,11111222,99999999' 
TABS,ioos:station:wmo:42044:1,1999-07-03T21:30:00Z,26.1914,-97.0507,2.0,296.56541,6.99889277,-99999.0,'11133222,11111222,99999999' 
TABS,ioos:station:wmo:42044:1,1999-07-03T22:00:00Z,26.1914,-97.0507,2.0,317.322922,5.059970356,-99999.0,'11133222,11111222,99999999' 
TABS,ioos:station:wmo:42044:1,1999-07-03T22:30:00Z,26.1914,-97.0507,2.0,281.2610192,4.557740668,-99999.0,'11133222,11111222,99999999' 
TABS,ioos:station:wmo:42044:1,1999-07-03T23:00:00Z,26.1914,-97.0507,2.0,274.6990904,7.324616031,-99999.0,'11133222,11111222,99999999' 
TABS,ioos:station:wmo:42044:1,1999-07-03T23:30:00Z,26.1914,-97.0507,2.0,282.7670347,8.100253082,-99999.0,'11133222,11111222,99999999' 
TABS,ioos:station:wmo:42044:1,1999-07-04T00:00:00Z,26.1914,-97.0507,2.0,297.9300725,8.262378592,-99999.0,'11133222,11111222,99999999' 
TABS,ioos:station:wmo:42044:1,1999-07-04T00:30:00Z,26.1914,-97.0507,2.0,300.5563137,6.746925226,-99999.0,'11133222,11111222,99999999' 
TABS,ioos:station:wmo:42044:1,1999-07-04T01:00:00Z,26.1914,-97.0507,2.0,272.2172101,7.755804278,-99999.0,'11133222,11111222,99999999' 
TABS,ioos:station:wmo:42044:1,1999-07-04T01:30:00Z,26.1914,-97.0507,2.0,272.5081168,6.856566196,-99999.0,'11133222,11111222,99999999' 
TABS,ioos:station:wmo:42044:1,1999-07-04T02:00:00Z,26.1914,-97.0507,2.0,254.6867965,9.580109603,-99999.0,'11133222,11111222,99999999' 
TABS,ioos:station:wmo:42044:1,1999-07-04T02:30:00Z,26.1914,-97.0507,2.0,269.0383329,8.941258301,-99999.0,'11133222,11111222,99999999' 
TABS,ioos:station:wmo:42044:1,1999-07-04T03:00:00Z,26.1914,-97.0507,2.0,281.7718823,7.303601851,-99999.0,'11133222,11111222,99999999' 
TABS,ioos:station:wmo:42044:1,1999-07-04T03:30:00Z,26.1914,-97.0507,2.0,273.8400083,8.960111606,-99999.0,'11133222,11111222,99999999' 
TABS,ioos:station:wmo:42044:1,1999-07-04T04:00:00Z,26.1914,-97.0507,2.0,258.8251235,10.78445641,-99999.0,'11111222,11111222,99999999' 
TABS,ioos:station:wmo:42044:1,1999-07-04T04:30:00Z,26.1914,-97.0507,2.0,266.7537753,10.59699958,-99999.0,'11111222,11111222,99999999' 
TABS,ioos:station:wmo:42044:1,1999-07-04T05:00:00Z,26.1914,-97.0507,2.0,270.0004209,10.58,-99999.0,'11111222,11111222,99999999' 
TABS,ioos:station:wmo:42044:1,1999-07-04T05:30:00Z,26.1914,-97.0507,2.0,264.6803153,11.21831092,-99999.0,'11111222,11111222,99999999' 
TABS,ioos:station:wmo:42044:1,1999-07-04T06:00:00Z,26.1914,-97.0507,2.0,283.8300185,8.743466132,-99999.0,'11133222,11111222,99999999' 
TABS,ioos:station:wmo:42044:1,1999-07-04T06:30:00Z,26.1914,-97.0507,2.0,274.1156519,12.40197565,-99999.0,'11111222,11111222,99999999' 
TABS,ioos:station:wmo:42044:1,1999-07-04T07:00:00Z,26.1914,-97.0507,2.0,282.919109,11.31643937,-99999.0,'11111222,11111222,99999999' 
TABS,ioos:station:wmo:42044:1,1999-07-04T07:30:00Z,26.1914,-97.0507,2.0,284.8532751,9.8697771,-99999.0,'11133222,11111222,99999999' 
TABS,ioos:station:wmo:42044:1,1999-07-04T08:00:00Z,26.1914,-97.0507,2.0,304.8038153,10.70496147,-99999.0,'11111222,11111222,99999999' 
TABS,ioos:station:wmo:42044:1,1999-07-04T08:30:00Z,26.1914,-97.0507,2.0,311.8766606,9.602635055,-99999.0,'11133222,11111222,99999999' 
TABS,ioos:station:wmo:42044:1,1999-07-04T09:00:00Z,26.1914,-97.0507,2.0,300.8540422,12.49883995,-99999.0,'11111222,11111222,99999999' 
TABS,ioos:station:wmo:42044:1,1999-07-04T09:30:00Z,26.1914,-97.0507,2.0,331.1747248,10.20441081,-99999.0,'11111222,11111222,99999999' 
TABS,ioos:station:wmo:42044:1,1999-07-04T10:00:00Z,26.1914,-97.0507,2.0,319.5882831,9.193562965,-99999.0,'11133222,11111222,99999999' 
TABS,ioos:station:wmo:42044:1,1999-07-04T10:30:00Z,26.1914,-97.0507,2.0,306.1012801,10.87897973,-99999.0,'11111222,11111222,99999999' 
TABS,ioos:station:wmo:42044:1,1999-07-04T11:00:00Z,26.1914,-97.0507,2.0,287.2745113,11.55100861,-99999.0,'11111222,11111222,99999999' 
TABS,ioos:station:wmo:42044:1,1999-07-04T11:30:00Z,26.1914,-97.0507,2.0,294.1277712,10.9353235,-99999.0,'11111222,11111222,99999999' 
TABS,ioos:station:wmo:42044:1,1999-07-04T12:00:00Z,26.1914,-97.0507,2.0,292.7941431,11.1508206,-99999.0,'11111222,11111222,99999999' 
TABS,ioos:station:wmo:42044:1,1999-07-04T12:30:00Z,26.1914,-97.0507,2.0,289.7758537,10.13787453,-99999.0,'11111222,11111222,99999999' 
TABS,ioos:station:wmo:42044:1,1999-07-04T13:00:00Z,26.1914,-97.0507,2.0,277.9061099,10.83295897,-99999.0,'11111222,11111222,99999999' 
TABS,ioos:station:wmo:42044:1,1999-07-04T13:30:00Z,26.1914,-97.0507,2.0,302.6383307,11.32888785,-99999.0,'11111222,11111222,99999999' 
TABS,ioos:station:wmo:42044:1,1999-07-04T14:00:00Z,26.1914,-97.0507,2.0,308.5162766,9.329849945,-99999.0,'11133222,11111222,99999999' 
TABS,ioos:station:wmo:42044:1,1999-07-04T14:30:00Z,26.1914,-97.0507,2.0,300.9728086,11.28975199,-99999.0,'11111222,11111222,99999999' 
TABS,ioos:station:wmo:42044:1,1999-07-04T15:00:00Z,26.1914,-97.0507,2.0,324.013499,11.41935637,-99999.0,'11111222,11111222,99999999' 
TABS,ioos:station:wmo:42044:1,1999-07-04T15:30:00Z,26.1914,-97.0507,2.0,316.4603813,16.65069968,-99999.0,'11111222,11111222,99999999' 
TABS,ioos:station:wmo:42044:1,1999-07-04T16:00:00Z,26.1914,-97.0507,2.0,206.5647786,6.99889277,-99999.0,'11133222,11111222,99999999' 